This is the latest recevied weather packets stored in our database for station/object N5ZP. If no packets are shown the sender has not sent any weather packets the latest 10 day(s).
| Time | Temp. | Humidity | Pressure | Rain* | Wind** | Luminosity | Snow |
|---|---|---|---|---|---|---|---|
| 1777661654 | 17.22° C | 61% | 1013.6 hPa | 0 mm | - | 153 W/m² | - |
| 1777661350 | 17.22° C | 62% | 1013.4 hPa | 0 mm | - | 170 W/m² | - |
| 1777661046 | 16.67° C | 59% | 1013 hPa | 0 mm | - | 239 W/m² | - |
| 1777660741 | 16.67° C | 60% | 1013.2 hPa | 0 mm | - | 214 W/m² | - |
| 1777660439 | 16.67° C | 60% | 1013.4 hPa | 0 mm | - | 191 W/m² | - |
| 1777660135 | 16.67° C | 59% | 1013.6 hPa | 0 mm | - | 214 W/m² | - |
| 1777659832 | 17.22° C | 62% | 1013.7 hPa | 0 mm | - | 213 W/m² | - |
| 1777659529 | 17.22° C | 60% | 1013.6 hPa | 0 mm | - | 233 W/m² | - |
| 1777659226 | 17.22° C | 58% | 1013.3 hPa | 0 mm | - | 287 W/m² | - |
| 1777658923 | 17.22° C | 64% | 1013.5 hPa | 0 mm | - | 281 W/m² | - |
| 1777658619 | 17.22° C | 61% | 1013.6 hPa | 0 mm | - | 267 W/m² | - |
| 1777658317 | 17.78° C | 62% | 1013.6 hPa | 0 mm | - | 286 W/m² | - |
| 1777658013 | 17.22° C | 62% | 1013.5 hPa | 0 mm | - | 303 W/m² | - |
| 1777657710 | 17.22° C | 64% | 1013.8 hPa | 0 mm | - | 285 W/m² | - |
| 1777657407 | 17.22° C | 64% | 1013.8 hPa | 0 mm | - | 269 W/m² | - |
| 1777657105 | 17.22° C | 62% | 1013.7 hPa | 0 mm | - | 267 W/m² | - |
| 1777656803 | 17.22° C | 63% | 1013.9 hPa | 0 mm | - | 302 W/m² | - |
| 1777656498 | 17.22° C | 61% | 1013.8 hPa | 0 mm | - | 255 W/m² | - |
| 1777656193 | 17.22° C | 60% | 1014 hPa | 0 mm | - | 291 W/m² | - |
| 1777655889 | 17.78° C | 61% | 1014.1 hPa | 0 mm | - | 350 W/m² | - |
| 1777655586 | 17.78° C | 64% | 1014.2 hPa | 0 mm | - | 379 W/m² | - |
| 1777655283 | 17.22° C | 67% | 1014.2 hPa | 0 mm | - | 481 W/m² | - |
| 1777654980 | 17.78° C | 65% | 1014.5 hPa | 0 mm | - | 358 W/m² | - |
| 1777654677 | 17.78° C | 67% | 1014.3 hPa | 0 mm | - | 466 W/m² | - |
| 1777654375 | 17.22° C | 69% | 1014.4 hPa | 0 mm | - | 744 W/m² | - |
* Rain latest hour (hover to see other rain measurements)
** Current wind speed in m/s (hover to see current wind gust speed)